Location: Thompson
(55.7500°N, 97.8670°W)
Time: 06:32:13
(UTC-06:00)

Cosmos 1666 - Visible Passes

Search period start: 24 February 2017 00:00
Search period end: 06 March 2017 00:00
Orbit: 500 x 527 km, 82.5° (Epoch: 23 February)

Date Brightness Start Highest point End Pass type
(mag) Time Alt. Az. Time Alt. Az. Time Alt. Az.
27 Feb 5.7 06:37:34 10° NNE 06:39:37 14° ENE 06:41:40 10° E visible
28 Feb 5.8 06:22:19 10° NNE 06:23:53 12° ENE 06:25:28 10° E visible
01 Mar 6.0 06:07:18 10° NE 06:08:09 11° NE 06:09:01 10° ENE visible
02 Mar 5.4 21:29:41 12° N 21:29:41 12° N 21:30:01 10° N visible
03 Mar 4.9 21:13:24 18° N 21:13:24 18° N 21:14:24 10° N visible
03 Mar 6.0 22:48:18 11° NW 22:48:18 11° NW 22:48:36 10° NNW visible
04 Mar 4.1 20:56:53 28° NNE 20:56:53 28° NNE 20:58:47 10° NNE visible
04 Mar 5.8 22:31:46 14° NW 22:31:46 14° NW 22:33:20 10° NNW visible
05 Mar 2.8 20:39:57 57° NE 20:39:57 57° NE 20:43:08 10° NNE visible
05 Mar 5.5 22:14:48 15° WNW 22:15:31 16° WNW 22:17:57 10° NNW visible
